Change the Weather History Date:

Thursday, October 27, 2011

  Actual Average Record
Temperature  
Mean Temperature 26 °F -  
Max Temperature 44 °F - 75 °F (1999)
Min Temperature 7 °F - 7 °F (2011)
Degree Days  
Heating Degree Days 39    
Month to date heating degree days 456  
Cooling Degree Days 0    
Month to date cooling degree days 0  
Moisture  
Dew Point 17 °F    
Average Humidity 61    
Maximum Humidity 92    
Minimum Humidity 30    
Precipitation  
Precipitation 0.00 in - 0.18 in (1998)
Month to date precipitation 0.73  
Year to date precipitation  
Sea Level Pressure  
Sea Level Pressure 30.25 in    
Wind  
Wind Speed 3 mph (NNW)    
Max Wind Speed 10 mph    
Max Gust Speed 13 mph    
Visibility 10 miles    
Events      
T = Trace of Precipitation, MM = Missing Value Source: NWS Daily Summary

Daily Weather History Graph

Daily Weather History Graph

Search for Another Location

Airport or City:

Trip Planner

Search our weather history database for the weather conditions in past years. The results will help you decide how hot, cold, wet, or windy it might be!

Date:

Astronomy

Oct. 27, 2011 Rise Set
Actual Time 7:16 AM MDT 5:59 PM MDT
Civil Twilight 6:49 AM MDT 6:27 PM MDT
Nautical Twilight 6:17 AM MDT 6:58 PM MDT
Astronomical Twilight 5:46 AM MDT 7:29 PM MDT
Moon 8:21 AM MDT 6:31 PM MDT
Length of Visible Light 11h 37m
Length of Day
10h 42m
New Moon, 1% of the Moon is Illuminated
Oct 27
New Moon
Nov 2
First Quarter
Nov 10
Full
Nov 18
Last Quarter
Nov 24
New

Hourly Weather History & Observations

Time (MDT) Temp. Windchill Dew Point Humidity Pressure Visibility Wind Dir Wind Speed Gust Speed Precip Events Conditions
12:55 AM 15.1 °F - 14.0 °F 95% 30.30 in 10.0 mi Calm Calm - N/A   Clear
1:55 AM 12.0 °F 4.1 °F 10.0 °F 92% 30.29 in 10.0 mi North 4.6 mph - N/A   Clear
3:55 AM 14.0 °F 3.9 °F 10.9 °F 88% 30.26 in 10.0 mi WNW 6.9 mph - N/A   Clear
4:55 AM 12.9 °F 5.2 °F 10.0 °F 88% 30.26 in 10.0 mi WNW 4.6 mph - N/A   Clear
5:55 AM 10.0 °F - 8.1 °F 92% 30.28 in 10.0 mi Calm Calm - N/A   Clear
6:55 AM 9.0 °F -2.2 °F 6.1 °F 88% 30.30 in 10.0 mi NNW 6.9 mph - N/A   Clear
7:55 AM 12.0 °F - 8.1 °F 84% 30.28 in 10.0 mi Calm Calm - N/A   Clear
8:55 AM 18.0 °F 11.1 °F 15.1 °F 88% 30.27 in 10.0 mi North 4.6 mph - N/A   Clear
9:55 AM 24.1 °F 17.0 °F 19.9 °F 84% 30.28 in 10.0 mi NNW 5.8 mph - N/A   Clear
10:55 AM 28.9 °F 22.8 °F 21.9 °F 75% 30.25 in 10.0 mi NW 5.8 mph - N/A   Clear
11:55 AM 36.0 °F 32.1 °F 25.0 °F 64% 30.23 in 10.0 mi WNW 4.6 mph - N/A   Clear
12:55 PM 39.9 °F - 16.0 °F 38% 30.20 in 10.0 mi Calm Calm - N/A   Clear
1:55 PM 42.1 °F 37.7 °F 15.1 °F 34% 30.18 in 10.0 mi NE 6.9 mph - N/A   Clear
2:55 PM 42.1 °F 40.2 °F 14.0 °F 32% 30.19 in 10.0 mi Variable 3.5 mph - N/A   Clear
3:55 PM 42.1 °F 38.4 °F 14.0 °F 32% 30.17 in 10.0 mi NNE 5.8 mph - N/A   Clear
4:55 PM 42.1 °F 39.2 °F 15.1 °F 34% 30.17 in 10.0 mi NE 4.6 mph - N/A   Clear
5:55 PM 37.9 °F - 21.0 °F 51% 30.22 in 10.0 mi Calm Calm - N/A   Clear
6:55 PM 30.9 °F 27.5 °F 24.1 °F 76% 30.27 in 10.0 mi North 3.5 mph - N/A   Clear
7:55 PM 27.0 °F - 23.0 °F 85% 30.29 in 10.0 mi Calm Calm - N/A   Clear
8:55 PM 27.0 °F 23.0 °F 24.1 °F 89% 30.27 in 10.0 mi North 3.5 mph - N/A   Clear
9:55 PM 26.1 °F 21.9 °F 24.1 °F 92% 30.27 in 10.0 mi North 3.5 mph - N/A   Clear
10:55 PM 25.0 °F 20.7 °F 21.9 °F 88% 30.27 in 10.0 mi NNW 3.5 mph - N/A   Clear
11:55 PM 26.1 °F 21.9 °F 21.9 °F 84% 30.24 in 10.0 mi NNW 3.5 mph - N/A   Clear